Regional Weather Roundup
Issued by NWS

Home | Current Version | Previous Version | Text Only | Print | Product List | Glossary On
Versions: 1 2 3 4 5 6 7 8 9 10 11 12 13 14 15 16 17 18 19 20 21 22 23 24 25 26 27 28 29 30 31 32 33 34 35 36 37 38 39 40 41 42 43 44 45 46 47 48 49 50
868
ASUS43 KTOP 081708
RWRKS

WEATHER ROUNDUP FOR KANSAS
NATIONAL WEATHER SERVICE GOODLAND KS
1100 AM CST MON FEB 08 2016

NOTE:  "FAIR" INDICATES FEW OR NO CLOUDS BELOW 12,000 FEET WITH NO
SIGNIFICANT WEATHER AND/OR OBSTRUCTIONS TO VISIBILITY.

KSZ001>006-013>018-027>032-041>047-081800-
NORTHWEST KANSAS

CITY           SKY/WX    TMP DP  RH WIND       PRES   REMARKS
GOODLAND       CLOUDY    31  17  56 NW18G28   30.38R WCI  19
HAYS           SUNNY     36  12  38 NW35G40   30.32R WCI  22
HILL CITY      SUNNY     34  17  50 NW28G38   30.35R WCI  21
RUSSELL        SUNNY     36  17  46 NW30G47   30.29R WCI  23
$$

KSZ061>065-074>080-084>089-081800-
SOUTHWEST KANSAS

CITY           SKY/WX    TMP DP  RH WIND       PRES   REMARKS
DODGE CITY     SUNNY     38   6  26 N25G38    30.37R WCI  27
ELKHART          N/A     42  13  30 NW16        N/A
GARDEN CITY    SUNNY     39   7  26 N23       30.40R WCI  28
GREAT BEND     SUNNY     37  12  35 N33G44    30.32R WCI  24
LIBERAL        SUNNY     43  12  28 NW24G35   30.43R
PRATT          SUNNY     37  10  32 NW35G44   30.32R WCI  23
$$

KSZ066>073-081>083-090>101-081800-
SOUTHEAST KANSAS

CITY           SKY/WX    TMP DP  RH WIND       PRES   REMARKS
CHANUTE        CLOUDY    37  19  48 NW25G36   30.14R WCI  25
COFFEYVILLE    PTSUNNY   41  18  39 NW29G41   30.17R
HUTCHINSON     SUNNY     40  12  32 NW33G52   30.25R WCI  28
MEDICINE LODGE   N/A     42  11  28 N31G41    30.31R
NEWTON         SUNNY     37  14  38 N31G48    30.22R WCI  25
WICHITA INTL   MOSUNNY   41  13  31 N33G41    30.25R
WICHITA JABRA  SUNNY     39  15  37 NW36G47   30.22S WCI  26
WICHITA MCCONL SUNNY     39  14  36 NW29G40   30.22S WCI  27
WINFIELD       SUNNY     42  15  33 NW29G46   30.25R
$$

KSZ007>012-019>026-033>040-048>060-102>105-081800-
NORTHEAST KANSAS

CITY           SKY/WX    TMP DP  RH WIND       PRES   REMARKS
CONCORDIA      MOSUNNY   33  17  51 NW26G41   30.23R WCI  20
EMPORIA        CLOUDY    35  17  47 NW26G40   30.15R WCI  22
LAWRENCE       CLOUDY    33  17  51 NW31G43   30.11R WCI  19
MANHATTAN      PTSUNNY   35  17  47 N20G35    30.20R WCI  24
MARYSVILLE     CLOUDY    32  19  59 N29G46    30.16R WCI  18
OLATHE IND     CLOUDY    32  18  56 NW20G40   30.08R WCI  20
OLATHE EXE     FLURRIES  30  17  58 NW22G29   30.07R WCI  17
SALINA         SUNNY     39  14  36 NW36G44   30.25R WCI  26
TOPEKA BILLARD CLOUDY    34  16  47 NW24G37   30.14R WCI  21
TOPEKA FORBES  FLURRIES  33  19  56 NW25G36   30.12R WCI  20
$$




USA.gov is the U.S. government's official web portal to all federal, state and local government web resources and services.